Overview Statistics Trail Chart Weather Telemetry Raw packets
 

This is the latest recevied weather packets stored in our database for station/object OK2ILA-10. If no packets are shown the sender has not sent any weather packets the latest 10 day(s).

<< 92 93 94 95 96 >>
Time Temp. Humidity Pressure Rain* Wind** Luminosity Snow
1787843527 23.33° C 50% 1021 hPa - - - -
1787842927 23.33° C 50% 1020.9 hPa - - - -
1787842327 23.33° C 49% 1021 hPa - - - -
1787841727 23.89° C 50% 1021 hPa - - - -
1787841127 23.89° C 49% 1021 hPa - - - -
1787840527 23.89° C 50% 1021 hPa - - - -
1787839926 23.89° C 50% 1021.1 hPa - - - -
1787839326 24.44° C 50% 1021 hPa - - - -
1787838726 23.89° C 50% 1021 hPa - - - -
1787838126 23.89° C 50% 1021 hPa - - - -
1787837526 24.44° C 49% 1020.9 hPa - - - -
1787836926 24.44° C 50% 1021 hPa - - - -
1787836326 24.44° C 49% 1021 hPa - - - -
1787835725 25° C 48% 1021 hPa - - - -
1787835125 25° C 48% 1021 hPa - - - -
1787834525 25° C 49% 1021.1 hPa - - - -
1787833925 24.44° C 50% 1021 hPa - - - -
1787833325 24.44° C 49% 1021.2 hPa - - - -
1787832725 23.89° C 49% 1021.3 hPa - - - -
1787832125 24.44° C 49% 1021.4 hPa - - - -
1787831525 24.44° C 49% 1021.3 hPa - - - -
1787830925 24.44° C 50% 1021.4 hPa - - - -
1787830325 23.89° C 51% 1021.6 hPa - - - -
1787829725 24.44° C 52% 1021.6 hPa - - - -
1787829125 24.44° C 51% 1021.8 hPa - - - -

* Rain since midnight (hover to see other rain measurements)
** Current wind speed in m/s (hover to see current wind gust speed)